Location: Recife
(8.0585°S, 34.8848°W)
Time: 11:07:39
(UTC-03:00)

SR - Pass Details

Date: 17 April 2026
Orbit: 568 x 852 km, 66.7° (Epoch: 12 May)

Event Time Altitude Azimuth Distance (km) Brightness Sun altitude
Rises 01:09:39 0° 307° (NW) 3,396 - -62.7°
Reaches altitude 10° 01:12:58 10° 288° (WNW) 2,447 - -61.8°
Maximum altitude 01:16:37 18° 248° (WSW) 1,944 - -60.9°
Drops below altitude 10° 01:20:11 10° 207° (SSW) 2,378 - -60.1°
Sets 01:23:22 0° 188° (S) 3,261 - -59.3°
